User: anonymous   Login
Location: Unspecified
(0.0000°N, 0.0000°E)
Time: 00:10:46
(UTC+00:00)
Language:

YAOGAN 4 - Orbit

View from above orbital plane
View from above orbital plane
View from above satellite
View from above satellite

Ground track
Ground track

The orbit data is extracted from the following two-line orbital elements,

1 33446U 08061A   18112.56909485 +.00000120 +00000-0 +23907-4 0  9992
2 33446 097.6220 096.7904 0016413 020.4199 339.7665 14.76756307505682
Epoch (UTC): 22 April 2018 13:39:29
Eccentricity: 0.0016413
inclination: 97.6220°
perigee height: 628 km
apogee height: 651 km
right ascension of ascending node: 96.7904°
argument of perigee: 20.4199°
revolutions per day: 14.76756307
mean anomaly at epoch: 339.7665°
orbit number at epoch: 50568

The dashed part of the orbit path shows where the satellite is in the earth's shadow,  

DLR